Regional Weather Roundup
Issued by NWS

Home | Current Version | Previous Version | Text Only | Print | Product List | Glossary On
Versions: 1 2 3 4 5 6 7 8 9 10 11 12 13 14 15 16 17 18 19 20 21 22 23 24 25 26 27 28 29 30 31 32 33 34 35 36 37 38 39 40 41 42 43 44 45 46 47 48 49 50
000
ASUS43 KLMK 221510
RWRKY
KENTUCKY REGIONAL WEATHER ROUNDUP
NATIONAL WEATHER SERVICE LOUISVILLE KY
1100 AM EDT WED MAR 22 2017

NOTE "FAIR" INDICATES FEW OR NO CLOUDS BELOW 12,000 FEET
WITH NO SIGNIFICANT WEATHER AND/OR OBSTRUCTIONS TO VISIBILITY.

KYZ001>023-026-027-061>063-070>075-221600-
WESTERN AND SOUTH CENTRAL KENTUCKY

CITY           SKY/WX    TMP DP  RH WIND       PRES   REMARKS
PADUCAH        PTSUNNY   46  25  43 NE18      30.39R
HENDERSON      SUNNY     41  19  42 NE13G18   30.43R
OWENSBORO      MOSUNNY   42  21  43 E12G21    30.44R
HOPKINSVILLE   SUNNY     46  24  42 NE13      30.37R
BOWLING GREEN  SUNNY     46  23  40 NE12      30.39R
GLASGOW        MOSUNNY   42  24  48 NE12G17   30.38S
$$

KYZ024-025-028>034-038-045-046-053-221600-
NORTH CENTRAL KENTUCKY

CITY           SKY/WX    TMP DP  RH WIND       PRES   REMARKS
LOUISVILLE/SDF MOSUNNY   41  11  29 NE16G22   30.46R
LOUISVILLE/LOU SUNNY     39  13  34 E13       30.46R WCI  31
FORT KNOX      SUNNY     40  15  36 NE12      30.41R WCI  33
$$

KYZ035>037-039>044-047>052-055>060-089>105-221600-
NORTHEAST KENTUCKY

CITY           SKY/WX    TMP DP  RH WIND       PRES   REMARKS
LEXINGTON      SUNNY     38  17  42 NE16      30.42R WCI  29
COVINGTON      SUNNY     33  17  51 NE12      30.47R WCI  24
FRANKFORT      SUNNY     39  15  37 NE10      30.43R WCI  32
$$

KYZ054-064>069-076>088-106>120-221600-
SOUTHEAST KENTUCKY

CITY           SKY/WX    TMP DP  RH WIND       PRES   REMARKS
JACKSON        SUNNY     40  22  48 NE6       30.36R
LONDON         SUNNY     42  22  44 NE8G17    30.34R
SOMERSET       SUNNY     37  19  48 N7G16     30.38R WCI  32
MIDDLESBORO    MOSUNNY   47  25  42 NE9       30.30S
MONTICELLO     NOT AVBL
$$





USA.gov is the U.S. government's official web portal to all federal, state and local government web resources and services.